• In Russia
  • List of Countries
  • For 7 days
  • Water Temperature
  • Satellite Maps
  • Weather Map
  • Weather Widgets
  • user-avatar
    Login

    Hourly Weather Lisiec

    Today, 15 December, Saturday

    Time Temperature Precipitation Wind Pressure Humidity
    00:00 -2°C° 0 mm 2 mps 762 mmHg 90%
    01:00 -2°C° 0 mm 2 mps 762 mmHg 90%
    02:00 -2°C° 0 mm 2 mps 762 mmHg 91%
    03:00 -2°C° 0 mm 2 mps 762 mmHg 91%
    04:00 -2°C° 0 mm 2 mps 763 mmHg 91%
    05:00 -2°C° 0 mm 2 mps 763 mmHg 91%
    06:00 -2°C° 0 mm 2 mps 763 mmHg 91%
    07:00 -2°C° 0 mm 2 mps 763 mmHg 91%
    08:00 -2°C° 0 mm 2 mps 763 mmHg 89%
    09:00 -1°C° 0 mm 2 mps 763 mmHg 88%
    10:00 -1°C° 0 mm 3 mps 763 mmHg 86%
    11:00 -1°C° 0.1 mm 3 mps 763 mmHg 84%
    12:00 -1°C° 0.1 mm 3 mps 763 mmHg 83%
    13:00 +1°C° 0 mm 2 mps 763 mmHg 82%
    14:00 -1°C° 0 mm 2 mps 763 mmHg 84%
    15:00 -1°C° 0 mm 3 mps 763 mmHg 85%
    16:00 -2°C° 0 mm 3 mps 763 mmHg 87%
    17:00 -2°C° 0 mm 3 mps 762 mmHg 88%
    18:00 -2°C° 0 mm 3 mps 762 mmHg 89%
    19:00 -2°C° 0 mm 3 mps 762 mmHg 90%
    20:00 -4°C° 0 mm 3 mps 762 mmHg 90%
    21:00 -4°C° 0 mm 3 mps 762 mmHg 90%
    22:00 -4°C° 0 mm 3 mps 761 mmHg 90%
    23:00 -4°C° 0 mm 3 mps 761 mmHg 89%

    Tomorrow, 16 December, Sunday

    Time Temperature Precipitation Wind Pressure Humidity
    00:00 -4°C° 0 mm 3 mps 761 mmHg 87%
    01:00 -4°C° 0 mm 3 mps 760 mmHg 86%
    02:00 -2°C° 0 mm 3 mps 760 mmHg 85%
    03:00 -3°C° 0 mm 4 mps 759 mmHg 84%
    04:00 -3°C° 0 mm 4 mps 759 mmHg 82%
    05:00 -3°C° 0.1 mm 4 mps 758 mmHg 83%
    06:00 -3°C° 0.1 mm 4 mps 758 mmHg 84%
    07:00 -3°C° 0.1 mm 4 mps 757 mmHg 84%
    08:00 -3°C° 0.2 mm 4 mps 757 mmHg 84%
    09:00 -4°C° 0.2 mm 5 mps 757 mmHg 84%
    10:00 -4°C° 0.2 mm 5 mps 756 mmHg 83%
    11:00 -2°C° 0.2 mm 5 mps 756 mmHg 83%
    12:00 -2°C° 0.2 mm 5 mps 756 mmHg 83%
    13:00 -2°C° 0.2 mm 4 mps 755 mmHg 82%
    14:00 -3°C° 0.1 mm 4 mps 755 mmHg 84%
    15:00 -3°C° 0.1 mm 4 mps 755 mmHg 86%
    16:00 -2°C° 0.1 mm 3 mps 755 mmHg 87%
    17:00 -2°C° 0 mm 3 mps 755 mmHg 88%
    18:00 -2°C° 0 mm 3 mps 754 mmHg 89%
    19:00 -2°C° 0 mm 3 mps 754 mmHg 90%
    20:00 -2°C° 0 mm 3 mps 754 mmHg 90%
    21:00 -2°C° 0 mm 3 mps 755 mmHg 90%
    22:00 -2°C° 0 mm 3 mps 755 mmHg 91%
    23:00 -2°C° 0 mm 2 mps 755 mmHg 92%

    Day after tomorrow, 17 December, Monday

    Time Temperature Precipitation Wind Pressure Humidity
    00:00 -2°C° 0 mm 2 mps 755 mmHg 93%
    01:00 -3°C° 0 mm 2 mps 755 mmHg 94%
    02:00 -3°C° 0 mm 2 mps 755 mmHg 94%
    03:00 -3°C° 0 mm 2 mps 755 mmHg 93%
    04:00 -3°C° 0 mm 2 mps 755 mmHg 93%
    05:00 -3°C° 0 mm 2 mps 755 mmHg 93%
    06:00 -3°C° 0 mm 2 mps 755 mmHg 92%
    07:00 -3°C° 0 mm 2 mps 755 mmHg 91%
    08:00 -3°C° 0 mm 2 mps 755 mmHg 89%
    09:00 -3°C° 0 mm 2 mps 755 mmHg 86%
    10:00 -2°C° 0 mm 3 mps 755 mmHg 84%
    11:00 -2°C° 0 mm 2 mps 756 mmHg 83%
    12:00 -2°C° 0 mm 2 mps 756 mmHg 81%
    13:00 -2°C° 0 mm 2 mps 756 mmHg 80%
    14:00 -2°C° 0 mm 2 mps 756 mmHg 83%
    15:00 -2°C° 0 mm 2 mps 757 mmHg 86%
    16:00 0°C° 0 mm 1 mps 757 mmHg 89%
    17:00 0°C° 0 mm 1 mps 757 mmHg 90%
    18:00 -1°C° 0 mm 1 mps 757 mmHg 92%
    19:00 -1°C° 0 mm 1 mps 758 mmHg 93%
    20:00 -1°C° 0 mm 1 mps 758 mmHg 93%
    21:00 -1°C° 0 mm 1 mps 759 mmHg 94%
    22:00 -1°C° 0 mm 1 mps 759 mmHg 94%
    23:00 -1°C° 0 mm 1 mps 759 mmHg 94%

    18 December, Tuesday

    Time Temperature Precipitation Wind Pressure Humidity
    00:00 -4°C° 0 mm 2 mps 760 mmHg 94%
    01:00 -4°C° 0 mm 2 mps 760 mmHg 94%
    02:00 -2°C° 0 mm 1 mps 760 mmHg 93%
    03:00 -2°C° 0 mm 1 mps 760 mmHg 93%
    04:00 -2°C° 0 mm 1 mps 761 mmHg 93%
    05:00 -2°C° 0 mm 1 mps 761 mmHg 93%
    06:00 -2°C° 0 mm 1 mps 761 mmHg 92%
    07:00 -2°C° 0 mm 1 mps 761 mmHg 92%
    08:00 -2°C° 0 mm 1 mps 762 mmHg 90%
    09:00 -1°C° 0 mm 1 mps 762 mmHg 88%
    10:00 -1°C° 0 mm 1 mps 762 mmHg 87%
    11:00 0°C° 0 mm 1 mps 763 mmHg 85%
    12:00 0°C° 0 mm 1 mps 763 mmHg 84%
    13:00 0°C° 0 mm 1 mps 763 mmHg 83%
    14:00 0°C° 0 mm 1 mps 763 mmHg 85%
    15:00 -1°C° 0 mm 1 mps 763 mmHg 88%
    16:00 -1°C° 0 mm 1 mps 763 mmHg 90%
    17:00 -1°C° 0 mm 1 mps 763 mmHg 91%
    18:00 -1°C° 0 mm 1 mps 763 mmHg 91%
    19:00 -2°C° 0 mm 1 mps 763 mmHg 92%
    20:00 -4°C° 0 mm 2 mps 763 mmHg 92%
    21:00 -4°C° 0 mm 2 mps 763 mmHg 93%
    22:00 -4°C° 0 mm 2 mps 763 mmHg 93%
    23:00 -4°C° 0 mm 2 mps 763 mmHg 94%

    19 December, Wednesday

    Time Temperature Precipitation Wind Pressure Humidity
    00:00 -4°C° 0 mm 2 mps 763 mmHg 94%
    01:00 -4°C° 0 mm 2 mps 763 mmHg 94%
    02:00 -4°C° 0 mm 2 mps 763 mmHg 94%
    03:00 -4°C° 0 mm 2 mps 763 mmHg 94%
    04:00 -4°C° 0 mm 2 mps 763 mmHg 94%
    05:00 -5°C° 0 mm 3 mps 763 mmHg 94%
    06:00 -5°C° 0 mm 3 mps 763 mmHg 94%
    07:00 -5°C° 0 mm 3 mps 763 mmHg 93%
    08:00 -5°C° 0 mm 3 mps 763 mmHg 91%
    09:00 -5°C° 0 mm 4 mps 763 mmHg 90%
    10:00 -4°C° 0 mm 4 mps 763 mmHg 88%
    11:00 -4°C° 0 mm 4 mps 762 mmHg 86%
    12:00 -4°C° 0 mm 4 mps 762 mmHg 85%
    13:00 -3°C° 0 mm 4 mps 762 mmHg 83%
    14:00 -4°C° 0 mm 4 mps 762 mmHg 85%
    15:00 -5°C° 0 mm 5 mps 761 mmHg 87%
    16:00 -6°C° 0 mm 5 mps 761 mmHg 89%
    17:00 -6°C° 0 mm 5 mps 761 mmHg 89%
    18:00 -6°C° 0 mm 5 mps 761 mmHg 89%
    19:00 -6°C° 0 mm 5 mps 761 mmHg 89%
    20:00 -6°C° 0 mm 6 mps 761 mmHg 89%
    21:00 -6°C° 0 mm 6 mps 761 mmHg 89%
    22:00 -6°C° 0 mm 6 mps 760 mmHg 89%
    23:00 -6°C° 0 mm 6 mps 760 mmHg 89%

    20 December, Thursday

    Time Temperature Precipitation Wind Pressure Humidity
    00:00 -6°C° 0 mm 6 mps 760 mmHg 89%
    01:00 -6°C° 0 mm 6 mps 760 mmHg 89%
    02:00 -6°C° 0 mm 6 mps 760 mmHg 89%
    03:00 -6°C° 0 mm 6 mps 760 mmHg 88%
    04:00 -6°C° 0 mm 6 mps 759 mmHg 88%
    05:00 -6°C° 0 mm 6 mps 759 mmHg 88%
    06:00 -6°C° 0 mm 6 mps 759 mmHg 89%
    07:00 -6°C° 0 mm 5 mps 759 mmHg 89%
    08:00 -6°C° 0 mm 5 mps 759 mmHg 87%
    09:00 -6°C° 0 mm 5 mps 759 mmHg 85%
    10:00 -6°C° 0 mm 5 mps 759 mmHg 84%
    11:00 -6°C° 0 mm 5 mps 759 mmHg 82%
    12:00 -6°C° 0 mm 5 mps 759 mmHg 81%
    13:00 -5°C° 0 mm 5 mps 758 mmHg 80%
    14:00 -5°C° 0 mm 5 mps 758 mmHg 81%
    15:00 -5°C° 0 mm 5 mps 758 mmHg 83%
    16:00 -6°C° 0 mm 5 mps 758 mmHg 84%
    17:00 -4°C° 0 mm 4 mps 758 mmHg 85%
    18:00 -4°C° 0 mm 4 mps 758 mmHg 85%
    19:00 -4°C° 0 mm 4 mps 758 mmHg 86%
    20:00 -4°C° 0.1 mm 4 mps 758 mmHg 87%
    21:00 -4°C° 0.1 mm 4 mps 758 mmHg 88%
    22:00 -4°C° 0.1 mm 4 mps 758 mmHg 89%
    23:00 -4°C° 0.1 mm 4 mps 758 mmHg 89%
    Show more